EW2348 Weather Reports


Display with metric or nautical units.
time (UTC)temp
F
wind
direction
speed
MPH
gust
MPH
rain 1hr
in
rain 24hr
in
rain mn
in
humidity
%
barometer
mb
20150201100138 33 0 0.0 0.0 0.00 0.00 0.00 79 1020.1
20150201095138 33 0 0.0 0.0 0.00 0.00 0.00 80 1020.2
20150201094139 33 0 0.0 0.0 0.00 0.00 0.00 81 1019.9
20150201093138 33 135 0.0 1.0 0.00 0.00 0.00 82 1020.0
20150201092138 33 0 0.0 0.0 0.00 0.00 0.00 81 1020.0
20150201085138 32 0 0.0 0.0 0.00 0.00 0.00 85 1020.5
20150201084138 33 0 0.0 0.0 0.00 0.00 0.00 84 1020.9
20150201082139 33 181 0.0 1.0 0.00 0.00 0.00 85 1021.2
20150201080138 32 0 0.0 0.0 0.00 0.00 0.00 87 1021.0
20150201074139 32 0 0.0 0.0 0.00 0.00 0.00 88 1021.2
20150201072138 32 0 0.0 0.0 0.00 0.00 0.00 86 1021.3
20150201071139 32 314 0.0 12.0 0.00 0.00 0.00 85 1021.8
20150201070139 32 0 0.0 0.0 0.00 0.00 0.00 85 1021.8
20150201064138 33 0 0.0 0.0 0.00 0.00 0.00 85 1022.0
20150201063139 33 0 0.0 0.0 0.00 0.00 0.00 85 1022.0
20150201061139 33 0 0.0 0.0 0.00 0.00 0.00 87 1021.8
20150201060138 32 0 0.0 0.0 0.00 0.00 0.00 89 1022.0
20150201054139 33 0 0.0 0.0 0.00 0.00 0.00 86 1022.6
20150201053138 33 0 0.0 0.0 0.00 0.00 0.00 87 1022.6
20150201050139 33 0 0.0 0.0 0.00 0.00 0.00 86 1022.7
20150201044138 33 0 0.0 0.0 0.00 0.00 0.00 82 1022.6
20150201042139 33 0 0.0 0.0 0.00 0.00 0.00 80 1022.9
20150201041138 35 0 0.0 0.0 0.00 0.00 0.00 74 1022.9
20150201040138 35 0 0.0 0.0 0.00 0.00 0.00 73 1023.2
20150201035138 35 0 0.0 0.0 0.00 0.00 0.00 69 1023.3
20150201034139 36 0 0.0 0.0 0.00 0.00 0.00 66 1023.4
20150201033138 36 0 0.0 0.0 0.00 0.00 0.00 63 1023.3
20150201032138 36 0 0.0 0.0 0.76 0.00 0.00 63 1023.4
20150201030139 36 0 0.0 0.0 0.00 0.00 0.00 65 1023.6
20150201025138 28 0 97.0 0.0 0.00 0.00 0.00 65 1023.6
20150201024139 35 0 0.0 0.0 0.00 0.00 0.00 67 1023.7
20150201021138 35 0 0.0 0.0 0.00 0.00 0.00 71 1023.7
20150201020139 36 0 0.0 0.0 0.00 0.00 0.00 68 1023.8
20150201015138 36 0 0.0 0.0 0.00 0.00 0.00 63 1023.9
20150201012139 37 0 0.0 0.0 0.00 0.00 0.00 57 1024.4
20150201005138 36 0 0.0 0.0 0.00 0.00 0.00 58 1024.3
20150201004139 36 0 0.0 0.0 0.00 0.00 0.00 58 1024.5
20150201003138 36 0 0.0 0.0 0.00 0.00 0.00 58 1024.5
20150201002138 36 0 0.0 0.0 0.00 0.00 0.00 58 1024.5
20150201001139 36 0 0.0 0.0 0.00 0.00 0.00 58 1024.4
20150201000139 36 0 0.0 0.0 0.00 0.00 0.00 58 1024.5
20150131235138 36 0 0.0 0.0 0.00 0.00 0.00 58 1024.6
20150131234138 36 0 0.0 0.0 0.00 0.00 0.00 57 1024.6
20150131233139 36 0 0.0 0.0 0.00 0.00 0.00 58 1024.6
20150131232140 36 0 0.0 0.0 0.00 0.00 0.00 57 1024.5
20150131231139 36 0 0.0 0.0 0.00 0.00 0.00 57 1024.4
20150131225138 36 0 0.0 0.0 0.00 0.00 0.00 56 1024.0
20150131224139 37 0 0.0 0.0 0.00 0.00 0.00 56 1024.1
20150131223138 37 0 0.0 0.0 0.00 0.00 0.00 56 1024.0
20150131222138 37 0 0.0 0.0 0.00 0.00 0.00 55 1024.1
20150131221138 37 0 0.0 0.0 0.00 0.00 0.00 55 1024.2
20150131220139 37 0 0.0 0.0 0.00 0.00 0.00 55 1024.2
20150131215138 37 0 0.0 0.0 0.00 0.00 0.00 54 1024.2
20150131214138 38 0 0.0 0.0 0.00 0.00 0.00 53 1024.3
20150131211139 40 0 0.0 0.0 0.00 1.93 0.00 49 1024.4
20150131210138 38 0 0.0 0.0 0.00 0.00 0.00 52 1024.5
20150131205138 38 0 0.0 0.0 0.00 0.00 0.00 50 1024.5
20150131203138 38 0 0.0 0.0 0.00 0.00 0.00 50 1024.8
20150131202138 38 0 0.0 0.0 0.00 0.00 0.00 48 1024.9
20150131200139 38 0 0.0 0.0 0.00 0.00 0.00 48 1024.8
20150131193138 39 0 0.0 0.0 0.00 0.00 0.00 50 1025.0
20150131192138 39 0 0.0 0.0 0.00 0.00 0.00 50 1024.9
20150131191138 39 0 0.0 0.0 0.00 0.00 0.00 52 1024.9
20150131190138 39 0 1.0 0.0 0.00 0.00 0.00 51 1025.1
20150131185138 38 0 0.0 0.0 0.00 0.00 0.00 53 1025.4
20150131184138 38 0 0.0 0.0 0.00 0.00 0.00 52 1025.4
20150131183138 38 0 0.0 0.0 0.00 0.00 0.00 52 1025.6
20150131182139 37 225 0.0 1.0 0.00 0.00 0.00 52 1025.9
20150131181138 38 0 0.0 0.0 0.00 0.00 0.00 53 1025.9
20150131180138 38 0 0.0 0.0 0.00 0.00 0.00 54 1026.2
20150131175137 37 0 0.0 0.0 0.00 0.00 0.00 55 1026.4
20150131174138 38 0 0.0 0.0 0.00 0.00 0.00 55 1026.5
20150131173138 39 0 0.0 0.0 0.00 0.00 0.00 54 1026.8
20150131172138 39 0 0.0 0.0 0.00 0.00 0.00 53 1026.9
20150131171137 39 0 0.0 0.0 0.00 0.00 0.00 55 1027.1
20150131170138 36 0 0.0 0.0 0.00 0.00 0.00 59 1027.4
20150131165138 35 0 0.0 0.0 0.00 0.00 0.00 59 1027.3
20150131164138 35 181 0.0 24.0 0.00 0.00 0.00 60 1027.7
20150131163138 35 0 0.0 0.0 0.00 0.00 0.00 59 1027.7
20150131162138 34 0 0.0 0.0 0.00 0.00 0.00 60 1028.0
20150131161138 34 0 0.0 0.0 0.00 0.00 0.00 61 1028.1
20150131160138 33 0 0.0 0.0 0.00 0.00 0.00 63 1028.1
20150131155138 32 0 0.0 0.0 0.00 0.00 0.00 64 1028.0
20150131153137 30 0 0.0 0.0 0.00 0.00 0.00 68 1027.9
20150131152154 29 181 0.0 1.0 0.00 0.00 0.00 72 1027.8
20150131150136 26 0 0.0 0.0 0.00 0.00 0.00 78 1028.0
20150131145136 24 0 0.0 0.0 0.00 0.00 0.00 78 1027.9
20150131144136 24 0 0.0 0.0 0.00 0.00 0.00 81 1027.8
20150131143136 23 0 0.0 0.0 0.00 0.00 0.00 80 1027.8
20150131142137 22 0 0.0 0.0 0.00 0.00 0.00 81 1028.0
20150131140136 20 181 0.0 1.0 0.00 0.00 0.00 84 1027.9
20150131134137 19 0 0.0 0.0 0.00 0.00 0.00 85 1027.8
20150131133136 18 0 0.0 0.0 0.00 0.00 0.00 86 1027.9
20150131132136 18 0 0.0 0.0 0.00 0.00 0.00 88 1027.7
20150131125136 17 0 0.0 0.0 0.00 0.00 0.00 89 1027.8
20150131124136 17 0 0.0 0.0 0.00 0.00 0.00 89 1027.5
20150131122137 17 0 0.0 0.0 0.00 0.00 0.00 89 1027.2
20150131121136 10 0 6.0 0.0 0.00 0.00 0.00 90 1027.1
20150131120136 10 0 6.0 0.0 0.00 0.00 0.00 90 1027.5
20150131114137 17 0 0.0 0.0 0.00 0.00 0.00 90 1027.3
20150131112136 17 0 0.0 0.0 0.00 0.00 0.00 90 1027.2
20150131111136 17 0 6.0 0.0 0.00 0.00 0.00 89 1027.2
20150131110136 17 0 6.0 0.0 0.00 0.00 0.00 89 1027.2
20150131105136 18 0 0.0 0.0 0.00 0.00 0.00 89 1027.3
20150131104136 18 0 0.0 0.0 0.00 0.00 0.00 90 1027.3